OAE9053 SKPE-SKMD

Flight info

Callsign OAE9053
Flight time 0h 25m
Altitude 17000
Route NEBOV2B AKSIM W37 VULRI DCT 054455N0753620W DCT 605N7538W 60519N753810W
Aircraft AT46/M-SDFGIRY/S

Departure

Time 2026-05-07 21:59
Airport Matecaña International Airport (SKPE)

Arrival

Time 2026-05-07 22:24
Airport Enrique Olaya Herrera Airport (SKMD)
Time Latitude Longitude Altitude Speed Heading
2026-05-07 21:32 4.81440 -75.73890 4421 ft 0 kts 342°
2026-05-07 21:49 4.81429 -75.73886 4421 ft 1 kts 357°
2026-05-07 21:49 4.81409 -75.73895 4421 ft 3 kts 46°
2026-05-07 21:49 4.81405 -75.73901 4420 ft 0 kts 75°
2026-05-07 21:53 4.81406 -75.73898 4420 ft 2 kts 75°
2026-05-07 21:53 4.81409 -75.73884 4421 ft 0 kts 80°
2026-05-07 21:53 4.81410 -75.73874 4421 ft 3 kts 88°
2026-05-07 21:53 4.81411 -75.73833 4422 ft 6 kts 81°
2026-05-07 21:54 4.81423 -75.73793 4423 ft 7 kts 72°
2026-05-07 21:54 4.81439 -75.73750 4423 ft 7 kts 73°
2026-05-07 21:54 4.81454 -75.73701 4423 ft 8 kts 72°
2026-05-07 21:54 4.81471 -75.73646 4424 ft 9 kts 75°
2026-05-07 21:55 4.81490 -75.73589 4427 ft 9 kts 69°
2026-05-07 21:55 4.81510 -75.73533 4426 ft 8 kts 77°
2026-05-07 21:55 4.81501 -75.73488 4427 ft 5 kts 126°
2026-05-07 21:55 4.81496 -75.73483 4425 ft 0 kts 141°
2026-05-07 21:56 4.81472 -75.73471 4428 ft 7 kts 162°
2026-05-07 21:56 4.81442 -75.73449 4427 ft 9 kts 122°
2026-05-07 21:56 4.81448 -75.73395 4427 ft 16 kts 66°
2026-05-07 21:57 4.81487 -75.73279 4425 ft 16 kts 71°
2026-05-07 21:57 4.81520 -75.73181 4426 ft 14 kts 72°
2026-05-07 21:57 4.81559 -75.73103 4425 ft 12 kts 41°
2026-05-07 21:57 4.81572 -75.73079 4424 ft 0 kts 132°
2026-05-07 21:58 4.81565 -75.73076 4424 ft 3 kts 163°
2026-05-07 21:58 4.81549 -75.73082 4424 ft 2 kts 246°
2026-05-07 21:58 4.81508 -75.73209 4425 ft 47 kts 251°
2026-05-07 21:58 4.81329 -75.73763 4424 ft 117 kts 251°
2026-05-07 21:59 4.81020 -75.74625 4821 ft 134 kts 248°
2026-05-07 21:59 4.80633 -75.75451 5411 ft 136 kts 243°
2026-05-07 21:59 4.80235 -75.76436 5484 ft 169 kts 252°
2026-05-07 21:59 4.79902 -75.77612 5867 ft 178 kts 255°
2026-05-07 22:00 4.79590 -75.78821 6368 ft 179 kts 255°
2026-05-07 22:00 4.79272 -75.80034 6859 ft 181 kts 254°
2026-05-07 22:00 4.78952 -75.81256 7287 ft 182 kts 262°
2026-05-07 22:00 4.79293 -75.82446 7677 ft 188 kts 310°
2026-05-07 22:01 4.80327 -75.83263 8146 ft 191 kts 328°
2026-05-07 22:01 4.81507 -75.83881 8607 ft 192 kts 336°
2026-05-07 22:01 4.82766 -75.84358 9067 ft 194 kts 341°
2026-05-07 22:01 4.84056 -75.84764 9516 ft 195 kts 343°
2026-05-07 22:02 4.85371 -75.85157 9851 ft 204 kts 343°
2026-05-07 22:02 4.86794 -75.85575 9915 ft 220 kts 346°
2026-05-07 22:02 4.88346 -75.85858 9938 ft 234 kts 352°
2026-05-07 22:02 4.89998 -75.86070 9956 ft 244 kts 353°
2026-05-07 22:03 4.91710 -75.86291 9976 ft 250 kts 352°
2026-05-07 22:03 4.93408 -75.86549 10262 ft 244 kts 351°
2026-05-07 22:03 4.95072 -75.86826 10546 ft 241 kts 351°
2026-05-07 22:03 4.96714 -75.87100 10818 ft 238 kts 351°
2026-05-07 22:04 4.98341 -75.87358 11094 ft 233 kts 355°
2026-05-07 22:04 4.99926 -75.87145 11369 ft 231 kts 17°
2026-05-07 22:04 5.01454 -75.86635 11645 ft 232 kts 20°
2026-05-07 22:04 5.02967 -75.86088 11918 ft 231 kts 21°
2026-05-07 22:05 5.04478 -75.85551 12193 ft 230 kts 20°
2026-05-07 22:05 5.05992 -75.85046 12465 ft 229 kts 19°
2026-05-07 22:05 5.07509 -75.84567 12741 ft 228 kts 19°
2026-05-07 22:05 5.09020 -75.84085 13011 ft 228 kts 19°
2026-05-07 22:06 5.10528 -75.83607 13292 ft 227 kts 19°
2026-05-07 22:06 5.12040 -75.83125 13570 ft 227 kts 19°
2026-05-07 22:06 5.13542 -75.82664 13844 ft 225 kts 18°
2026-05-07 22:06 5.15065 -75.82332 14116 ft 224 kts
2026-05-07 22:07 5.16614 -75.82335 14389 ft 222 kts 359°
2026-05-07 22:07 5.18154 -75.82391 14670 ft 221 kts 359°
2026-05-07 22:07 5.19473 -75.82437 14910 ft 219 kts
2026-05-07 22:07 5.21006 -75.82451 15171 ft 221 kts
2026-05-07 22:08 5.22534 -75.82428 15448 ft 219 kts
2026-05-07 22:08 5.24050 -75.82406 15725 ft 217 kts
2026-05-07 22:08 5.25562 -75.82388 16014 ft 217 kts
2026-05-07 22:08 5.27067 -75.82366 16236 ft 216 kts
2026-05-07 22:09 5.28562 -75.82347 16499 ft 214 kts
2026-05-07 22:09 5.30043 -75.82338 16775 ft 212 kts
2026-05-07 22:09 5.31503 -75.82320 16943 ft 217 kts
2026-05-07 22:09 5.33069 -75.82295 17004 ft 226 kts
2026-05-07 22:10 5.34674 -75.82274 17038 ft 235 kts
2026-05-07 22:10 5.36330 -75.82254 17045 ft 242 kts
2026-05-07 22:10 5.38033 -75.82227 17050 ft 248 kts
2026-05-07 22:10 5.39774 -75.82206 17050 ft 252 kts
2026-05-07 22:11 5.41534 -75.82191 17041 ft 255 kts
2026-05-07 22:11 5.43292 -75.82170 17050 ft 257 kts
2026-05-07 22:11 5.45086 -75.82151 17046 ft 259 kts
2026-05-07 22:11 5.46901 -75.82128 17028 ft 261 kts
2026-05-07 22:12 5.48717 -75.82108 17041 ft 261 kts
2026-05-07 22:12 5.50540 -75.82087 17039 ft 263 kts
2026-05-07 22:12 5.52369 -75.82065 17026 ft 263 kts
2026-05-07 22:12 5.54203 -75.82044 17027 ft 263 kts
2026-05-07 22:13 5.56033 -75.82022 17028 ft 263 kts
2026-05-07 22:13 5.57866 -75.82003 17031 ft 263 kts
2026-05-07 22:13 5.59699 -75.81979 17019 ft 262 kts
2026-05-07 22:13 5.61456 -75.81626 17018 ft 259 kts 21°
2026-05-07 22:14 5.63133 -75.80954 17015 ft 259 kts 25°
2026-05-07 22:14 5.64795 -75.80245 17025 ft 260 kts 25°
2026-05-07 22:14 5.66472 -75.79567 17018 ft 260 kts 23°
2026-05-07 22:14 5.68168 -75.78930 17015 ft 260 kts 22°
2026-05-07 22:15 5.69874 -75.78305 16995 ft 262 kts 22°
2026-05-07 22:15 5.71592 -75.77673 16886 ft 262 kts 22°
2026-05-07 22:15 5.73294 -75.77043 16709 ft 260 kts 22°
2026-05-07 22:15 5.74982 -75.76421 16532 ft 257 kts 22°
2026-05-07 22:16 5.76627 -75.75754 16359 ft 252 kts 30°
2026-05-07 22:16 5.78218 -75.75067 16175 ft 252 kts 11°
2026-05-07 22:16 5.79949 -75.74971 16007 ft 247 kts
2026-05-07 22:16 5.81664 -75.74821 15834 ft 248 kts
2026-05-07 22:17 5.83377 -75.74633 15658 ft 248 kts 10°
2026-05-07 22:17 5.85091 -75.74384 15484 ft 249 kts 12°
2026-05-07 22:17 5.86803 -75.74056 15312 ft 251 kts 14°
2026-05-07 22:17 5.88512 -75.73688 15128 ft 251 kts 15°
2026-05-07 22:18 5.90222 -75.73303 14953 ft 252 kts 15°
2026-05-07 22:18 5.93638 -75.72500 14569 ft 252 kts 17°
2026-05-07 22:18 5.95334 -75.72023 14350 ft 254 kts 18°
2026-05-07 22:19 5.97028 -75.71519 14134 ft 255 kts 19°
2026-05-07 22:19 5.98716 -75.70967 13880 ft 256 kts 22°
2026-05-07 22:19 6.00389 -75.70306 13589 ft 260 kts 24°
2026-05-07 22:19 6.02038 -75.69558 13256 ft 261 kts 30°
2026-05-07 22:20 6.03629 -75.68642 12826 ft 263 kts 33°
2026-05-07 22:20 6.05150 -75.67709 12389 ft 250 kts 34°
2026-05-07 22:20 6.06565 -75.66822 11936 ft 226 kts 34°
2026-05-07 22:20 6.07851 -75.66020 11471 ft 210 kts 34°
2026-05-07 22:21 6.09004 -75.65233 11029 ft 196 kts 47°
2026-05-07 22:21 6.09813 -75.64159 10587 ft 189 kts 56°
2026-05-07 22:21 6.10561 -75.63094 10119 ft 189 kts 56°
2026-05-07 22:21 6.11326 -75.62021 9447 ft 189 kts 49°
2026-05-07 22:22 6.12455 -75.61272 8528 ft 202 kts 24°
2026-05-07 22:22 6.13804 -75.60747 7493 ft 216 kts 19°
2026-05-07 22:22 6.15195 -75.60338 7055 ft 196 kts 14°
2026-05-07 22:22 6.16411 -75.60169 6889 ft 163 kts
2026-05-07 22:23 6.17490 -75.59984 6349 ft 151 kts 11°
2026-05-07 22:23 6.18475 -75.59734 5808 ft 144 kts 13°
2026-05-07 22:23 6.19391 -75.59550 5524 ft 123 kts
2026-05-07 22:23 6.20202 -75.59400 5258 ft 113 kts
2026-05-07 22:24 6.20953 -75.59254 4998 ft 109 kts
2026-05-07 22:24 6.21643 -75.59127 4898 ft 77 kts 11°
2026-05-07 22:24 6.21866 -75.59079 4882 ft 4 kts 16°
2026-05-07 22:24 6.21884 -75.59066 4884 ft 4 kts 59°
2026-05-07 22:25 6.21881 -75.58997 4880 ft 11 kts 108°
2026-05-07 22:25 6.21865 -75.58915 4882 ft 13 kts 96°
2026-05-07 22:25 6.21856 -75.58834 4882 ft 10 kts 97°
2026-05-07 22:25 6.21854 -75.58817 4882 ft 0 kts 88°
2026-05-07 22:26 6.21861 -75.58789 4880 ft 7 kts 56°
2026-05-07 22:26 6.21890 -75.58781 4882 ft 5 kts 11°
2026-05-07 22:26 6.21895 -75.58780 4882 ft 0 kts 14°